Weather History for Lambertville, MI

Change the Weather History Date:

Saturday, May 11, 2013

  Actual Average (KTOL) Record (KTOL)
Temperature  
Mean Temperature 50 °F 58 °F  
Max Temperature 60 °F 69 °F 89 °F (1979)
Min Temperature 37 °F 47 °F 29 °F (1945)
Degree Days  
Heating Degree Days 16 8  
Month to date heating degree days 100  
Since 1 July heating degree days 6002  
Cooling Degree Days 0 1  
Month to date cooling degree days 8  
Year to date cooling degree days 16  
Moisture  
Dew Point 40 °F    
Average Humidity 75    
Maximum Humidity 87    
Minimum Humidity 55    
Precipitation  
Precipitation 0.00 in 0.11 in 1.69 in (1956)
Month to date precipitation 1.20  
Year to date precipitation 10.99  
Snow  
Snow 0.00 in 0.00 in - ()
Month to date snowfall 0.1  
Since 1 July snowfall 37.6  
Snow Depth -    
Sea Level Pressure  
Sea Level Pressure 29.86 in    
Wind  
Wind Speed 7 mph (WNW)    
Max Wind Speed 15 mph    
Max Gust Speed 24 mph    
Visibility 10 miles    
Events Rain    
T = Trace of Precipitation, MM = Missing Value Source: NWS Daily Summary

Daily Weather History Graph

Daily Weather History Graph

Search for Another Location

Airport:

Trip Planner

Search our weather history database for the weather conditions in past years. The results will help you decide how hot, cold, wet, or windy it might be!

Date:

Astronomy

May. 11, 2013 Rise Set
Actual Time 6:18 AM EDT 8:43 PM EDT
Civil Twilight 5:47 AM EDT 9:15 PM EDT
Nautical Twilight 5:08 AM EDT 9:54 PM EDT
Astronomical Twilight 4:25 AM EDT 10:37 PM EDT
Moon 7:25 AM EDT (5/11) 10:23 PM EDT (5/11)
Length of Visible Light 15h 27m
Length of Day
14h 25m
Waxing Crescent, 3% of the Moon is Illuminated
May 11
Waxing Crescent
May 18
First Quarter
May 25
Full
May 31
Last Quarter
Jun 8
New

Hourly Weather History & Observations

Time (EDT) Temp. Windchill Dew Point Humidity Pressure Visibility Wind Dir Wind Speed Gust Speed Precip Events Conditions
12:15 AM 44.6 °F 39.7 °F 39.2 °F 81% 29.87 in 10.0 mi NNW 9.2 mph - N/A   Overcast
12:35 AM 44.6 °F 41.4 °F 39.2 °F 81% 29.88 in 10.0 mi NNW 5.8 mph - N/A   Overcast
12:55 AM 44.6 °F 40.7 °F 39.2 °F 81% 29.88 in 10.0 mi NNW 6.9 mph - N/A   Overcast
1:15 AM 44.6 °F 39.7 °F 39.2 °F 81% 29.87 in 10.0 mi NNW 9.2 mph - N/A   Overcast
1:35 AM 44.6 °F 40.2 °F 39.2 °F 81% 29.87 in 10.0 mi NNW 8.1 mph - N/A   Overcast
1:55 AM 44.6 °F 43.1 °F 39.2 °F 81% 29.87 in 10.0 mi NNW 3.5 mph - N/A   Overcast
2:15 AM 44.6 °F 41.4 °F 39.2 °F 81% 29.88 in 10.0 mi NNW 5.8 mph - N/A   Overcast
2:35 AM 44.6 °F 43.1 °F 39.2 °F 81% 29.88 in 10.0 mi NNW 3.5 mph - N/A   Overcast
2:55 AM 44.6 °F - 39.2 °F 81% 29.88 in 10.0 mi Calm Calm - N/A   Overcast
3:15 AM 44.6 °F 42.2 °F 39.2 °F 81% 29.88 in 10.0 mi NNW 4.6 mph - N/A   Overcast
3:35 AM 44.6 °F 43.1 °F 39.2 °F 81% 29.88 in 10.0 mi NW 3.5 mph - N/A   Overcast
3:55 AM 44.6 °F 41.4 °F 41.0 °F 87% 29.89 in 10.0 mi NW 5.8 mph - N/A   Overcast
4:15 AM 44.6 °F 43.1 °F 41.0 °F 87% 29.89 in 10.0 mi NW 3.5 mph - N/A   Overcast
4:35 AM 44.6 °F 42.2 °F 41.0 °F 87% 29.88 in 10.0 mi WNW 4.6 mph - N/A   Overcast
4:55 AM 44.6 °F 42.2 °F 41.0 °F 87% 29.88 in 10.0 mi WNW 4.6 mph - N/A   Overcast
5:15 AM 44.6 °F 43.1 °F 41.0 °F 87% 29.88 in 10.0 mi NW 3.5 mph - N/A   Overcast
5:35 AM 44.6 °F 42.2 °F 41.0 °F 87% 29.88 in 10.0 mi NW 4.6 mph - N/A   Overcast
5:55 AM 44.6 °F 43.1 °F 41.0 °F 87% 29.88 in 10.0 mi NW 3.5 mph - N/A   Overcast
6:15 AM 44.6 °F 41.4 °F 41.0 °F 87% 29.88 in 10.0 mi NW 5.8 mph - N/A   Overcast
6:35 AM 44.6 °F 42.2 °F 41.0 °F 87% 29.88 in 10.0 mi NW 4.6 mph - N/A   Overcast
6:55 AM 44.6 °F 43.1 °F 41.0 °F 87% 29.89 in 10.0 mi NW 3.5 mph - N/A   Overcast
7:15 AM 44.6 °F - 41.0 °F 87% 29.89 in 10.0 mi Calm Calm - N/A   Overcast
7:35 AM 44.6 °F - 41.0 °F 87% 29.89 in 10.0 mi Calm Calm - N/A   Overcast
7:55 AM 46.4 °F 45.2 °F 41.0 °F 81% 29.89 in 10.0 mi WNW 3.5 mph - N/A   Overcast
8:15 AM 46.4 °F 43.5 °F 41.0 °F 81% 29.88 in 10.0 mi WNW 5.8 mph - N/A   Overcast
8:35 AM 46.4 °F 44.3 °F 41.0 °F 81% 29.88 in 10.0 mi NNW 4.6 mph - N/A   Overcast
8:55 AM 46.4 °F 42.4 °F 41.0 °F 81% 29.88 in 7.0 mi NNW 8.1 mph - N/A   Overcast
9:15 AM 46.4 °F 43.5 °F 41.0 °F 81% 29.88 in 10.0 mi NW 5.8 mph - N/A   Overcast
9:35 AM 46.4 °F 45.2 °F 41.0 °F 81% 29.88 in 10.0 mi West 3.5 mph - N/A   Overcast
9:55 AM 46.4 °F 42.9 °F 41.0 °F 81% 29.88 in 10.0 mi West 6.9 mph - N/A   Overcast
10:15 AM 46.4 °F 43.5 °F 41.0 °F 81% 29.88 in 10.0 mi West 5.8 mph - N/A   Overcast
10:35 AM 46.4 °F 44.3 °F 41.0 °F 81% 29.88 in 10.0 mi West 4.6 mph - N/A   Overcast
10:55 AM 46.4 °F 42.9 °F 41.0 °F 81% 29.88 in 10.0 mi West 6.9 mph - N/A   Overcast
11:15 AM 46.4 °F 42.9 °F 41.0 °F 81% 29.88 in 10.0 mi WSW 6.9 mph - N/A   Overcast
11:35 AM 48.2 °F - 42.8 °F 82% 29.87 in 10.0 mi WSW 4.6 mph - N/A   Overcast
11:55 AM 50.0 °F - 42.8 °F 76% 29.88 in 10.0 mi WNW 4.6 mph - N/A   Overcast
12:15 PM 50.0 °F - 42.8 °F 76% 29.87 in 10.0 mi WSW 6.9 mph - N/A   Overcast
12:35 PM 50.0 °F - 42.8 °F 76% 29.87 in 10.0 mi West 6.9 mph - N/A   Overcast
12:55 PM 50.0 °F - 42.8 °F 76% 29.86 in 10.0 mi WSW 5.8 mph - N/A   Overcast
1:15 PM 51.8 °F - 42.8 °F 71% 29.86 in 10.0 mi WSW 8.1 mph 16.1 mph N/A   Overcast
1:35 PM 51.8 °F - 42.8 °F 71% 29.85 in 10.0 mi SW 9.2 mph - N/A   Overcast
1:55 PM 51.8 °F - 42.8 °F 71% 29.84 in 10.0 mi WSW 8.1 mph - N/A   Overcast
2:15 PM 51.8 °F - 42.8 °F 71% 29.84 in 10.0 mi SW 6.9 mph - N/A   Overcast
2:35 PM 53.6 °F - 42.8 °F 67% 29.84 in 10.0 mi SSW 9.2 mph - N/A   Overcast
2:55 PM 55.4 °F - 42.8 °F 63% 29.82 in 10.0 mi WSW 6.9 mph - N/A   Mostly Cloudy
3:15 PM 59.0 °F - 44.6 °F 59% 29.81 in 10.0 mi West 6.9 mph - N/A   Scattered Clouds
3:35 PM 59.0 °F - 42.8 °F 55% 29.81 in 10.0 mi WSW 11.5 mph 18.4 mph N/A   Mostly Cloudy
3:55 PM 60.8 °F - 44.6 °F 55% 29.80 in 10.0 mi SW 10.4 mph 17.3 mph N/A   Mostly Cloudy
4:15 PM 59.0 °F - 44.6 °F 59% 29.79 in 10.0 mi SW 8.1 mph 18.4 mph N/A   Mostly Cloudy
4:35 PM 59.0 °F - 42.8 °F 55% 29.78 in 10.0 mi WSW 10.4 mph 17.3 mph N/A   Overcast
4:55 PM 59.0 °F - 44.6 °F 59% 29.79 in 10.0 mi SW 12.7 mph 18.4 mph N/A   Overcast
5:15 PM 57.2 °F - 42.8 °F 59% 29.79 in 10.0 mi WSW 13.8 mph 19.6 mph N/A   Overcast
5:35 PM 53.6 °F - 44.6 °F 72% 29.79 in 7.0 mi SW 8.1 mph 18.4 mph N/A Rain Light Rain
5:55 PM 55.4 °F - 44.6 °F 67% 29.80 in 10.0 mi SW 9.2 mph - N/A   Overcast
6:15 PM 55.4 °F - 44.6 °F 67% 29.79 in 10.0 mi SW 11.5 mph 17.3 mph N/A   Overcast
6:35 PM 53.6 °F - 44.6 °F 72% 29.79 in 10.0 mi SW 11.5 mph 18.4 mph N/A   Overcast
6:55 PM 53.6 °F - 44.6 °F 72% 29.79 in 10.0 mi WSW 11.5 mph 17.3 mph N/A   Overcast
7:15 PM 51.8 °F - 42.8 °F 71% 29.82 in 10.0 mi West 15.0 mph 23.0 mph N/A   Overcast
7:35 PM 50.0 °F - 42.8 °F 76% 29.84 in 10.0 mi WNW 11.5 mph 23.0 mph N/A   Overcast
7:55 PM 48.2 °F - 41.0 °F 76% 29.86 in 10.0 mi WNW 11.5 mph 20.7 mph N/A   Overcast
8:15 PM 46.4 °F 40.7 °F 37.4 °F 71% 29.87 in 10.0 mi NW 12.7 mph 17.3 mph N/A   Overcast
8:35 PM 46.4 °F 40.4 °F 35.6 °F 66% 29.87 in 10.0 mi WNW 13.8 mph 23.0 mph N/A   Overcast
8:55 PM 46.4 °F 41.9 °F 32.0 °F 57% 29.88 in 10.0 mi NW 9.2 mph 24.2 mph N/A   Overcast
9:15 PM 44.6 °F 38.4 °F 32.0 °F 61% 29.89 in 10.0 mi NW 12.7 mph 24.2 mph N/A   Scattered Clouds
9:35 PM 42.8 °F 37.5 °F 32.0 °F 66% 29.90 in 10.0 mi NW 9.2 mph 17.3 mph N/A   Clear
10:15 PM 42.8 °F 40.1 °F 32.0 °F 66% 29.92 in 10.0 mi NW 4.6 mph - N/A   Clear
10:35 PM 41.0 °F 39.0 °F 32.0 °F 70% 29.93 in 10.0 mi WNW 3.5 mph - N/A   Clear
10:55 PM 41.0 °F - 32.0 °F 70% 29.93 in 10.0 mi Calm Calm - N/A   Clear
11:15 PM 41.0 °F 39.0 °F 32.0 °F 70% 29.93 in 10.0 mi West 3.5 mph - N/A   Clear
11:35 PM 39.2 °F - 32.0 °F 75% 29.93 in 10.0 mi Calm Calm - N/A   Clear
11:55 PM 37.4 °F - 32.0 °F 81% 29.94 in 10.0 mi Calm Calm - N/A   Clear